Location: Newark
(35.8967°N, 14.4625°E)
Time: 03:07:31
(UTC+00:00)

N. Korean satellite - Pass Details

Date: 23 November 2019
Orbit: 455 x 506 km, 97.2° (Epoch: 10 December)

Event Time Altitude Azimuth Distance (km) Brightness Sun altitude
Rises 04:27:36 0° 19° (NNE) 2,596 10.3 -15.8°
Reaches altitude 10° 04:29:47 10° 27° (NNE) 1,701 9.5 -15.4°
Maximum altitude 04:33:15 40° 98° (E) 740 8.1 -14.7°
Drops below altitude 10° 04:36:38 10° 169° (S) 1,663 9.6 -14.0°
Sets 04:38:45 0° 177° (S) 2,528 10.5 -13.6°
